Location: Mountain Grove
(34.0887°N, 86.6172°W)
Time: 21:56:50
(UTC+00:00)

Cosmos 1844 - Pass Details

Date: 14 July 2020
Orbit: 822 x 868 km, 70.9° (Epoch: 08 August)

Event Time Altitude Azimuth Distance (km) Brightness Sun altitude
Rises 01:15:41 0° 344° (NNW) 3,442 7.6 -3.8°
Reaches altitude 10° 01:18:15 10° 349° (N) 2,496 6.8 -4.3°
Maximum altitude 01:23:50 52° 66° (ENE) 1,045 4.0 -5.3°
Drops below altitude 10° 01:29:19 10° 142° (SE) 2,453 5.5 -6.3°
Enters shadow 01:30:30 - 145° (SE) 2,887 5.9 -6.5°
